Dewpoint
1 3 2 -7 -10 -10 -10 -10 -9 -2 0 -1 1 3 2 1 3 8 9 9 9 10 10 10 11 10 11 11 11 9 8 8 8 8 8 7 8 8 8 8 7 7 5
-1 -2 2 3 -4 -1 -3 -3 1 2 1 2 5 7 7 3 2 8 9 10 9 9 9 9 11 11 11 11 11 10 9 7 8 8 9 8 9 8 8 8 7 6 5
5 5 3 2 4 5 5 3 4 5 6 6 7 7 7 8 8 7 8 9 9 8 8 7 9 10 11 10 10 10 10 9 7 8 9 9 9 9 9 9 8 8 6
6 6 6 6 6 7 6 5 5 5 5 5 5 7 8 8 9 9 9 9 9 8 10 9 8 9 9 9 10 10 10 9 10 8 9 9 10 10 10 9 9 8 7
6 6 6 6 5 4 5 5 4 4 4 4 7 7 8 9 8 8 9 9 9 9 9 10 10 9 7 7 8 9 10 10 10 9 9 9 10 10 10 9 9 8 8
5 5 3 4 6 7 5 5 7 7 7 7 7 7 7 7 7 7 9 8 9 9 10 9 10 10 9 9 10 10 10 10 10 9 9 9 8 8 9 8 9 9 8
4 3 2 2 5 7 8 8 8 8 8 8 8 8 8 9 9 10 9 9 9 9 10 10 9 10 10 10 10 10 10 10 10 9 10 9 10 9 8 9 8 8 8
2 3 3 2 3 5 7 7 8 8 8 8 6 7 9 10 10 10 10 9 10 10 10 10 10 10 10 10 9 8 10 10 10 9 8 9 9 9 9 8 9 8 8
-6 -2 2 4 5 4 6 6 7 6 7 6 6 7 9 9 10 10 10 10 9 9 9 10 10 9 9 9 9 9 9 9 9 9 8 8 8 9 9 9 9 9 8
-16 -14 -8 -1 1 3 5 5 5 6 6 6 7 7 8 8 9 9 9 9 9 9 9 8 8 8 7 7 8 9 9 9 9 9 9 9 9 9 9 9 9 9 9
-19 -19 -20 -20 -14 -6 -1 0 1 2 4 5 5 4 5 5 5 6 7 7 8 8 8 7 7 7 7 7 7 8 8 7 7 7 7 7 8 8 8 8 8 9 9
-18 -19 -20 -21 -21 -22 -22 -19 -14 -10 -7 -6 -5 -4 -4 -5 -4 -1 -0 1 2 2 2 2 2 2 3 3 3 3 4 5 5 5 6 6 6 6 6 6 7 7 6
-14 -15 -15 -16 -17 -19 -21 -21 -21 -21 -21 -21 -21 -20 -20 -20 -20 -23 -23 -23 -23 -21 -21 -21 -20 -16 -12 -7 -4 -1 -0 1 1 2 3 4 3 3 3 4 4 4 4
-16 -16 -16 -16 -15 -15 -14 -14 -15 -15 -14 -14 -13 -13 -11 -13 -14 -15 -16 -17 -18 -18 -18 -18 -18 -18 -18 -19 -20 -19 -13 -6 -2 1 1 1 1 2 1 2 2 3 3
-17 -17 -17 -16 -16 -15 -15 -15 -15 -14 -13 -12 -12 -11 -11 -9 -9 -11 -12 -13 -13 -14 -14 -14 -15 -15 -15 -15 -14 -13 -12 -12 -13 -3 -1 -1 -1 -0 -0 -0 -0 1 1
-15 -15 -15 -16 -16 -16 -15 -14 -15 -15 -14 -14 -14 -14 -13 -14 -14 -15 -15 -14 -14 -14 -15 -15 -15 -14 -14 -13 -12 -12 -11 -11 -11 -8 -6 -2 -2 -2 -1 -1 -1 -1 -1
-15 -16 -15 -15 -15 -15 -15 -15 -14 -14 -14 -14 -14 -14 -15 -14 -14 -14 -14 -14 -14 -15 -14 -13 -12 -11 -10 -9 -8 -7 -8 -7 -5 -5 -6 -5 -3 -2 -2 -2 -2 -1 -2
-15 -15 -15 -15 -15 -15 -15 -14 -14 -14 -14 -14 -14 -13 -14 -14 -14 -14 -15 -15 -14 -13 -12 -11 -10 -10 -9 -9 -8 -8 -8 -7 -6 -6 -4 -3 -3 -3 -3 -3 -3 -3 -2
-14 -14 -15 -15 -14 -14 -14 -14 -14 -14 -14 -13 -13 -13 -14 -15 -15 -14 -14 -14 -13 -12 -11 -10 -9 -9 -8 -8 -8 -7 -7 -7 -6 -6 -5 -5 -5 -3 -3 -3 -4 -3 -3
-13 -14 -14 -14 -13 -14 -14 -14 -14 -14 -13 -13 -13 -13 -14 -15 -14 -14 -13 -12 -11 -10 -10 -9 -9 -8 -8 -8 -8 -8 -7 -7 -7 -7 -6 -6 -5 -5 -4 -4 -4 -4 -4
-13 -13 -14 -14 -14 -14 -14 -14 -14 -14 -13 -13 -13 -13 -14 -15 -14 -13 -12 -12 -11 -11 -10 -9 -9 -9 -8 -8 -8 -8 -7 -7 -7 -7 -6 -6 -6 -5 -5 -4 -4 -4 -4
-13 -13 -13 -14 -13 -13 -14 -13 -14 -14 -14 -14 -14 -14 -15 -15 -15 -14 -13 -11 -11 -11 -10 -10 -9 -8 -8 -8 -8 -8 -8 -7 -6 -6 -6 -6 -6 -6 -5 -5 -5 -5 -5
-13 -13 -13 -14 -13 -13 -13 -13 -14 -14 -14 -14 -15 -15 -15 -15 -14 -14 -13 -11 -11 -11 -11 -10 -9 -9 -8 -9 -8 -8 -8 -8 -7 -6 -6 -6 -6 -6 -5 -5 -5 -5 -5
-13 -13 -13 -14 -13 -13 -13 -13 -13 -13 -14 -15 -15 -15 -14 -14 -14 -14 -13 -11 -11 -11 -11 -10 -10 -9 -9 -9 -9 -8 -8 -7 -6 -5 -6 -6 -6 -6 -6 -6 -5 -5 -5
-13 -13 -13 -13 -13 -13 -13 -13 -13 -14 -14 -14 -14 -14 -14 -14 -14 -14 -13 -12 -12 -11 -11 -11 -10 -10 -9 -9 -9 -9 -8 -7 -6 -6 -5 -5 -6 -6 -6 -6 -6 -6 -6
-13 -13 -13 -13 -13 -13 -13 -13 -14 -14 -14 -13 -13 -13 -13 -13 -13 -13 -13 -13 -13 -13 -13 -13 -12 -11 -10 -10 -10 -9 -9 -8 -7 -6 -5 -5 -6 -6 -6 -6 -6 -5 -5
Wind_Speed
18 19 23 32 38 39 39 37 37 34 33 33 32 32 34 36 35 33 34 37 39 41 41 40 52 51 49 49 48 51 42 39 35 30 31 31 28 27 28 29 28 28 28
13 17 21 22 29 31 33 34 33 33 32 32 31 28 29 32 35 32 34 35 38 40 41 41 45 48 50 43 43 47 48 44 43 39 36 39 36 32 31 30 29 29 31
8 11 15 19 23 25 27 29 29 30 29 31 28 28 29 30 31 33 33 33 38 41 43 45 44 48 51 39 39 43 45 48 47 45 38 40 39 36 36 35 33 33 35
11 11 13 17 20 22 24 26 28 29 30 30 31 29 32 31 32 30 34 36 39 40 43 43 45 48 48 39 40 39 35 44 49 48 45 47 44 42 40 38 39 39 40
9 15 20 26 33 33 30 29 31 31 34 36 31 32 31 30 30 30 37 37 38 40 44 44 48 47 50 45 45 45 38 43 49 47 47 50 49 46 46 44 43 42 44
18 5 2 8 25 33 32 31 27 24 24 26 28 32 37 41 39 41 35 37 37 40 45 44 48 43 43 43 41 42 43 46 45 45 50 55 54 52 48 48 44 45 47
33 25 23 23 17 8 15 20 22 23 25 27 32 35 34 40 29 27 31 28 29 30 39 46 50 47 44 41 35 36 36 42 43 47 49 53 49 50 47 46 45 50 47
32 34 36 35 33 30 23 22 18 16 15 9 13 19 21 20 26 24 21 27 31 21 21 24 22 26 27 22 20 23 27 32 37 36 41 42 41 39 42 42 44 43 46
30 30 32 36 39 37 35 32 26 25 17 27 22 23 14 12 19 23 25 29 32 26 23 23 20 19 22 26 25 26 29 32 32 35 40 42 43 43 43 43 48 45 46
28 26 24 26 29 30 30 30 29 28 25 25 25 25 21 18 15 11 9 8 11 11 11 10 15 21 25 27 29 32 33 33 33 35 37 39 41 46 51 49 51 54 51
22 22 22 22 22 23 21 21 21 21 20 20 20 20 18 16 13 11 10 7 6 9 10 10 12 13 15 21 24 26 28 30 33 36 40 44 40 41 49 51 54 56 60
19 19 20 21 21 20 18 17 17 16 16 17 15 15 14 13 10 7 4 2 2 4 6 9 11 13 14 16 19 20 22 24 25 27 33 37 39 40 41 43 51 59 61
19 20 20 20 20 19 18 18 17 16 16 16 14 14 13 12 11 9 9 7 8 8 10 12 15 17 19 20 21 23 25 24 25 26 27 30 31 30 35 41 47 51 51
13 15 16 18 18 20 19 19 19 19 18 17 16 16 14 14 14 13 12 11 9 10 12 14 17 18 19 20 21 22 24 24 22 22 25 25 26 28 31 38 45 47 44
11 11 12 13 14 15 17 18 17 18 17 15 16 14 13 14 15 15 15 15 16 16 16 17 19 20 22 23 24 26 28 29 28 25 22 26 28 31 31 33 41 46 46
10 10 11 13 13 14 14 14 15 13 11 10 10 10 10 9 7 7 7 10 14 16 19 21 23 24 25 26 27 27 26 28 29 27 28 27 28 32 32 34 34 44 49
7 7 9 11 12 13 13 12 11 10 9 8 7 8 11 14 17 17 17 17 17 17 18 21 23 25 27 27 28 29 29 27 26 28 27 29 30 31 34 34 38 40 47
5 6 7 8 10 11 10 10 10 9 9 10 13 14 14 15 15 15 14 13 14 16 18 19 22 25 28 29 30 31 31 31 31 29 29 30 30 30 32 36 36 42 47
2 3 4 6 7 7 7 8 10 11 10 9 10 11 14 14 14 15 17 17 17 17 18 20 22 25 27 28 29 30 31 31 30 30 30 30 32 32 33 32 36 40 44
2 1 2 3 3 4 6 7 9 10 9 10 12 15 16 15 15 16 17 17 16 16 17 19 21 23 26 29 30 32 32 33 33 31 31 29 29 29 30 32 33 38 40
5 3 3 1 0 2 4 6 8 9 9 11 13 14 15 16 15 15 16 16 17 16 16 18 21 24 26 28 29 31 32 34 32 30 29 28 27 27 27 26 31 34 38
7 5 5 4 2 1 2 4 6 7 8 9 10 11 11 13 14 15 15 15 16 17 17 18 19 21 23 26 29 29 31 34 36 30 27 24 22 21 20 20 24 30 35
8 7 7 6 4 3 2 3 4 5 6 8 10 11 12 13 13 14 14 16 17 17 18 18 19 20 21 24 25 27 30 34 35 30 23 19 17 16 15 16 20 27 33
10 8 8 7 5 4 2 2 2 4 5 7 9 10 10 11 12 13 14 15 16 17 18 18 18 19 21 23 25 26 27 29 29 29 19 13 10 9 9 11 17 24 27
12 10 10 8 6 5 3 1 1 3 4 5 6 8 9 10 11 12 13 14 15 16 16 16 18 18 20 21 22 23 24 25 25 24 25 19 15 11 7 8 13 18 22
13 12 11 9 7 5 4 2 1 2 3 4 6 7 8 8 9 11 12 13 13 14 16 17 17 16 18 20 20 21 20 21 22 20 19 19 16 10 4 3 7 13 16
Wind_Direction
228 227 219 214 216 225 230 233 232 232 230 231 234 240 245 246 238 228 230 236 240 240 244 247 238 237 244 245 245 246 236 237 238 243 252 256 257 253 248 244 249 253 250
233 228 220 216 216 222 225 225 227 229 230 232 237 238 238 242 235 232 229 232 241 242 243 246 246 242 238 243 250 245 233 242 241 244 251 255 255 253 247 245 250 251 249
221 217 222 224 223 223 224 226 228 229 231 236 237 238 234 231 236 236 232 233 240 246 247 246 244 248 237 237 243 247 244 243 252 247 245 249 252 251 247 247 250 253 249
239 242 240 237 235 231 231 232 234 237 242 243 245 245 239 245 230 232 231 233 238 242 245 247 246 240 242 239 243 248 247 247 252 252 241 247 250 250 247 247 250 252 248
200 237 242 243 242 237 236 236 241 246 250 251 249 244 235 232 241 256 243 238 237 240 239 236 239 246 253 248 246 254 248 245 247 247 242 246 245 248 246 252 250 252 251
73 60 315 236 239 238 236 238 240 240 246 254 253 251 251 247 256 260 241 235 242 247 241 246 238 249 249 249 250 250 252 237 246 242 246 248 251 252 251 252 255 249 246
56 61 66 73 108 175 211 221 230 236 237 240 247 251 241 249 242 230 225 242 246 244 246 240 242 245 247 244 248 242 250 253 252 255 257 249 259 258 260 256 257 257 254
51 50 62 72 87 110 148 151 171 182 176 188 164 162 201 209 214 225 231 236 241 250 228 229 234 246 236 245 247 250 250 255 248 250 256 263 264 265 265 268 266 262 262
44 47 49 61 76 88 101 105 115 111 109 102 115 117 149 182 197 202 214 223 226 222 215 216 213 211 220 224 236 254 261 264 261 257 257 262 264 266 266 267 257 253 247
36 41 51 57 65 73 83 89 94 96 96 88 87 92 117 121 147 162 179 187 194 201 211 211 236 251 256 253 257 256 257 260 262 262 262 263 265 262 259 260 259 255 244
34 39 45 56 63 70 77 82 84 85 86 84 83 84 85 87 89 108 126 162 212 230 243 250 251 250 252 250 252 253 258 261 262 265 266 264 261 262 260 258 256 257 252
40 47 49 51 56 63 70 75 76 77 77 79 78 76 71 67 63 62 56 43 334 302 297 297 298 297 297 292 289 288 285 285 285 281 272 268 267 269 268 266 260 253 247
31 39 46 53 58 61 63 63 65 67 69 66 64 61 55 46 39 32 19 2 349 343 329 321 313 307 302 298 293 292 291 292 292 289 287 287 284 283 283 274 265 252 243
35 41 44 42 48 49 51 54 54 57 56 54 52 49 42 34 27 21 14 5 353 346 340 334 330 324 318 314 310 308 305 299 294 293 293 293 291 289 287 277 259 238 224
40 49 53 54 54 52 50 48 48 46 42 45 46 39 35 28 18 8 360 358 356 353 347 339 336 335 332 328 327 326 323 322 312 299 293 296 296 288 281 275 257 235 221
32 39 48 52 57 59 59 53 54 57 54 48 45 35 26 14 9 19 20 9 6 4 354 349 345 340 337 334 331 325 321 321 320 313 297 290 297 298 288 275 258 242 226
39 43 49 53 54 55 55 61 62 56 52 51 46 40 34 28 24 20 16 13 2 354 357 358 355 350 344 338 333 327 321 310 306 301 296 288 287 293 288 277 264 242 231
65 56 60 60 57 55 54 57 64 65 54 40 38 36 37 33 27 17 11 5 6 10 9 4 358 353 348 341 334 328 320 313 307 302 297 290 285 285 286 275 262 246 230
66 65 66 64 62 62 59 56 52 48 43 42 38 34 35 27 20 19 17 16 13 10 9 8 3 359 356 352 345 337 328 320 312 304 296 288 284 276 281 279 263 249 234
216 164 116 96 79 63 51 45 42 43 43 40 32 27 24 20 20 22 20 17 13 7 4 3 1 359 356 354 352 348 343 333 321 311 302 292 287 281 283 281 267 247 237
247 240 218 202 95 35 32 30 31 35 37 35 30 23 15 16 15 15 14 13 6 359 355 357 358 356 355 354 351 347 349 344 332 315 304 293 284 281 283 279 269 256 241
238 239 234 233 251 327 15 20 21 21 22 24 21 18 13 14 9 8 7 6 0 357 351 348 350 350 350 349 347 344 348 343 341 330 310 295 285 283 282 277 270 254 236
230 234 233 235 251 293 334 353 7 16 14 11 12 12 13 11 7 5 3 2 357 354 353 347 343 344 343 340 340 340 347 342 339 340 322 302 289 290 289 279 265 248 231
225 226 223 228 241 258 275 318 4 17 13 10 13 12 11 5 5 3 2 1 357 354 352 351 345 347 345 340 341 338 347 344 340 349 348 330 322 322 305 281 259 238 226
221 219 217 220 229 230 225 221 28 27 19 18 21 20 15 9 6 1 1 360 358 355 354 352 352 356 353 350 346 349 350 350 351 358 10 14 13 7 339 284 243 222 212
220 216 212 213 213 215 211 194 135 68 41 28 24 23 15 9 6 5 5 359 356 358 357 357 358 1 1 358 353 0 359 4 6 13 20 26 27 21 359 254 219 198 186
Height
1382 1385 1388 1390 1396 1402 1406 1410 1413 1417 1420 1423 1427 1430 1432 1435 1437 1441 1444 1446 1448 1452 1455 1458 1461 1468 1470 1474 1479 1483 1487 1496 1497 1497 1498 1501 1503 1504 1504 1506 1507 1508 1508
1380 1383 1385 1388 1391 1396 1399 1403 1407 1410 1414 1417 1420 1422 1424 1426 1429 1431 1436 1439 1440 1442 1446 1450 1455 1460 1463 1467 1469 1471 1477 1485 1490 1491 1490 1492 1495 1496 1498 1499 1500 1500 1500
1379 1381 1383 1385 1388 1391 1394 1397 1401 1405 1408 1411 1413 1415 1417 1420 1423 1425 1428 1432 1433 1436 1440 1443 1447 1449 1453 1457 1463 1463 1467 1472 1479 1484 1482 1482 1486 1488 1489 1491 1492 1492 1492
1378 1380 1381 1382 1384 1386 1389 1392 1396 1399 1402 1405 1406 1408 1410 1412 1415 1419 1421 1424 1427 1429 1432 1435 1438 1442 1447 1449 1454 1455 1457 1462 1468 1472 1472 1472 1476 1478 1478 1481 1481 1481 1482
1373 1374 1374 1373 1373 1377 1381 1385 1389 1392 1394 1397 1399 1401 1403 1405 1407 1410 1412 1415 1418 1421 1424 1427 1429 1433 1436 1442 1445 1447 1448 1451 1457 1460 1461 1461 1463 1465 1466 1468 1469 1471 1471
1374 1372 1367 1364 1363 1365 1372 1378 1383 1386 1388 1390 1389 1390 1392 1395 1397 1400 1404 1407 1409 1412 1414 1418 1421 1424 1428 1432 1434 1437 1439 1440 1446 1450 1452 1450 1451 1452 1455 1455 1458 1459 1460
1380 1373 1366 1362 1359 1361 1367 1373 1378 1380 1380 1381 1380 1382 1380 1381 1385 1391 1397 1400 1403 1407 1409 1410 1414 1416 1419 1421 1426 1427 1429 1434 1438 1441 1440 1438 1442 1442 1446 1446 1447 1448 1448
1386 1380 1372 1367 1361 1362 1364 1368 1373 1376 1375 1375 1372 1370 1373 1378 1383 1388 1394 1398 1401 1402 1402 1405 1409 1409 1412 1417 1418 1420 1422 1424 1427 1429 1428 1429 1431 1433 1433 1435 1436 1437 1438
1395 1388 1383 1377 1373 1370 1369 1371 1374 1375 1376 1375 1374 1369 1373 1378 1381 1384 1391 1394 1396 1397 1398 1400 1402 1403 1405 1407 1409 1412 1414 1415 1418 1418 1420 1420 1422 1423 1423 1424 1422 1425 1423
1400 1397 1394 1389 1385 1381 1381 1380 1381 1380 1379 1379 1378 1377 1380 1382 1385 1387 1390 1391 1394 1397 1398 1399 1400 1402 1404 1403 1405 1406 1405 1406 1407 1408 1408 1408 1409 1410 1409 1409 1410 1409 1409
1407 1404 1400 1396 1394 1392 1391 1389 1388 1387 1386 1384 1384 1384 1385 1387 1389 1390 1392 1393 1394 1396 1397 1397 1398 1398 1399 1398 1398 1397 1397 1397 1396 1395 1395 1394 1394 1394 1393 1395 1395 1394 1392
1413 1409 1405 1401 1398 1397 1396 1394 1392 1391 1390 1389 1389 1389 1389 1390 1391 1391 1391 1392 1392 1393 1394 1394 1394 1394 1392 1393 1393 1391 1389 1388 1387 1386 1384 1382 1382 1381 1381 1381 1381 1379 1378
1415 1412 1409 1407 1405 1402 1399 1397 1395 1394 1393 1392 1391 1391 1392 1392 1392 1392 1392 1392 1392 1393 1393 1392 1391 1390 1390 1389 1388 1385 1383 1382 1379 1377 1375 1373 1372 1372 1371 1370 1369 1368 1368
1420 1416 1413 1410 1408 1405 1403 1402 1400 1398 1396 1396 1395 1394 1395 1394 1394 1393 1393 1393 1392 1392 1391 1390 1389 1388 1386 1384 1382 1381 1379 1376 1374 1371 1369 1367 1364 1362 1362 1361 1360 1360 1360
1422 1420 1418 1415 1412 1410 1408 1405 1403 1401 1400 1398 1397 1397 1397 1396 1395 1395 1394 1392 1390 1389 1388 1387 1385 1382 1380 1378 1376 1374 1372 1369 1368 1366 1363 1361 1358 1357 1355 1353 1353 1353 1351
1423 1421 1419 1417 1415 1413 1412 1410 1407 1405 1404 1402 1401 1400 1399 1398 1397 1396 1395 1393 1390 1386 1384 1382 1380 1379 1376 1373 1371 1369 1367 1364 1361 1359 1356 1354 1352 1349 1347 1345 1345 1348 1346
1425 1423 1421 1419 1416 1414 1413 1411 1410 1409 1407 1406 1404 1402 1399 1397 1394 1392 1391 1390 1388 1386 1385 1382 1380 1378 1375 1371 1368 1364 1360 1358 1355 1352 1349 1346 1344 1342 1340 1338 1339 1335 1341
1425 1423 1422 1419 1417 1415 1414 1412 1411 1409 1408 1406 1404 1401 1399 1397 1395 1393 1391 1390 1388 1386 1384 1382 1380 1376 1373 1369 1365 1360 1356 1351 1348 1345 1341 1339 1337 1333 1332 1330 1329 1330 1330
1423 1422 1421 1419 1418 1417 1415 1414 1411 1408 1407 1406 1404 1402 1400 1397 1395 1392 1389 1387 1386 1385 1383 1380 1377 1375 1372 1367 1363 1357 1351 1346 1342 1338 1335 1332 1329 1327 1324 1323 1322 1323 1324
1423 1422 1420 1419 1418 1417 1415 1413 1411 1408 1407 1405 1402 1399 1397 1396 1394 1390 1388 1387 1386 1385 1383 1380 1378 1374 1369 1363 1359 1352 1346 1341 1335 1331 1327 1323 1321 1318 1317 1315 1315 1316 1317
1422 1421 1420 1418 1417 1415 1413 1411 1409 1408 1406 1403 1401 1398 1397 1394 1393 1390 1387 1386 1386 1384 1381 1378 1374 1370 1366 1362 1356 1351 1345 1338 1331 1324 1319 1315 1313 1311 1310 1309 1309 1310 1313
1419 1419 1418 1417 1415 1413 1411 1409 1407 1406 1405 1402 1400 1398 1396 1393 1392 1390 1388 1386 1384 1382 1379 1376 1373 1369 1366 1361 1355 1349 1342 1334 1327 1319 1312 1308 1305 1304 1303 1303 1303 1305 1308
1414 1414 1414 1414 1413 1410 1408 1406 1405 1404 1403 1401 1399 1396 1394 1393 1392 1390 1388 1385 1383 1381 1378 1374 1371 1368 1365 1360 1355 1349 1340 1332 1325 1316 1307 1303 1300 1299 1298 1298 1299 1301 1303
1409 1409 1409 1409 1409 1407 1405 1404 1403 1402 1401 1399 1397 1396 1394 1393 1391 1390 1387 1384 1382 1380 1377 1374 1371 1366 1362 1358 1352 1346 1339 1333 1325 1315 1306 1300 1297 1295 1294 1294 1296 1299 1302
1404 1404 1404 1405 1404 1404 1403 1402 1401 1399 1399 1398 1397 1395 1394 1393 1391 1390 1387 1385 1383 1381 1379 1375 1370 1365 1361 1356 1351 1345 1339 1333 1325 1316 1308 1301 1297 1295 1295 1295 1296 1299 1302
1400 1400 1400 1399 1400 1401 1400 1399 1398 1397 1397 1397 1396 1394 1394 1393 1392 1390 1387 1385 1383 1381 1378 1374 1369 1365 1361 1356 1351 1345 1340 1334 1327 1320 1313 1308 1303 1300 1300 1300 1301 1304 1307